Home > Weather > Bad Vöslau > Past weeks

Flag for Austria Past Weather in Bad Vöslau, Lower Austria, Austria — Yesterday and Last 2 Weeks

Now
64 °F

Sunny.


Feels Like: 64 °F
Forecast: 55 / 83 °F
Wind: 3 mph from East

Location: Eisenstadt

Current Time: Aug 26, 2016 at 9:04:37 AM

Latest Report: Aug 26, 2016 at 8:00 AM


Visibility: 9 mi

Pressure: 30.17 "Hg

Humidity: 80%

Dew Point: 57 °F

Location of Bad VöslauLocation

Past Weather in Bad Vöslau — Graph

°F

Bad Vöslau Temperature Yesterday

Maximum temperature yesterday: 81 °F (at 4:00 PM)
Minimum temperature yesterday: 60 °F (at 7:00 AM)
Average temperature yesterday: 70 °F

High & Low Weather Summary for the Past Weeks

 TemperatureHumidityPressure
High83 °F (Aug 14, 5:00 PM)97% (Aug 20, 7:00 AM)30.33 "Hg (Aug 20, 7:00 AM)
Low53 °F (Aug 12, 6:00 AM)38% (Aug 17, 6:00 PM)29.80 "Hg (Aug 18, 4:00 PM)
Average67 °F71%30.10 "Hg
* Reported Aug 11 8:00 AM — Aug 26 8:00 AM, Bad Vöslau, Weather by CustomWeather, © 2016

Note: Actual official high and low records may vary slightly from our data, if they occured in-between our weather recording intervals... More about our weather records

Advertising

Bad Vöslau Weather History for the Previous 24 Hours

Scroll right to see more
 ConditionsComfort  
Time TempWeatherWind HumidityBarometerVisibility
8:00 AM
Fri, Aug 26
64 °FSunny.3 mph80%30.17 "Hg9 mi
7:00 AM61 °FSunny.2 mph87%30.17 "Hg6 mi
6:00 AM59 °FClear.2 mph91%30.17 "Hg6 mi
5:00 AM58 °FCool.2 mph91%30.17 "HgN/A
4:00 AM59 °FCool.3 mph90%30.17 "HgN/A
3:00 AM59 °FCool.3 mph89%30.16 "HgN/A
2:00 AM60 °FClear.3 mph86%30.17 "Hg9 mi
1:00 AM61 °FCool.3 mph87%30.18 "HgN/A
12:00 AM62 °FCool.5 mph87%30.18 "HgN/A
11:00 PM
Thu, Aug 25
63 °FClear.3 mph85%30.18 "Hg9 mi
10:00 PM64 °FMild.3 mph82%30.18 "HgN/A
9:00 PM66 °FMild.3 mph77%30.17 "HgN/A
8:00 PM70 °FClear.3 mph70%30.15 "Hg12 mi
7:00 PM78 °FSunny.3 mph46%30.13 "Hg12 mi
6:00 PM79 °FWarm.5 mph45%30.13 "HgN/A
5:00 PM80 °FSunny.5 mph43%30.14 "Hg12 mi
4:00 PM81 °FPleasantly warm.3 mph40%30.15 "HgN/A
3:00 PM80 °FWarm.3 mph45%30.15 "HgN/A
2:00 PM78 °FSunny.2 mph48%30.17 "Hg12 mi
1:00 PM76 °FMild.2 mph49%30.18 "HgN/A
12:00 PM75 °FMild.3 mph54%30.19 "HgN/A
11:00 AM73 °FSunny.2 mph56%30.21 "Hg12 mi
10:00 AM70 °FMild.1 mph63%30.22 "HgN/A
9:00 AM68 °FMild.1 mph65%30.22 "HgN/A
Weather by CustomWeather, © 2016

See weather overviewHow to use our weather pages